GFSSW_prec_cloud_222.txt.gz
Cloud_Cover
91 36 98 55 89 1 3 7 24 5 1 2 3 80 1 0 0 11 63 73 47 3 6 28 13 100 100 100 98 100 100 92 1 99 100 100 100 100 100 100 73 96 45 5 90
1 37 97 100 99 33 64 15 79 6 24 5 5 4 6 3 1 1 0 23 15 5 50 14 87 100 100 100 100 100 100 100 2 30 100 100 100 100 87 91 89 100 95 52 99
86 90 47 3 3 4 12 4 0 3 5 10 16 5 16 83 51 0 62 55 62 91 98 100 100 100 99 96 74 100 100 100 34 2 87 100 100 100 100 92 79 100 100 100 100
47 5 49 5 5 20 6 5 5 5 22 11 11 8 5 19 47 22 100 100 100 100 100 100 100 100 58 100 100 100 100 100 28 5 63 96 100 52 100 100 100 100 100 100 97
65 5 5 5 4 5 5 5 5 5 5 26 99 70 28 75 52 46 100 100 100 98 100 100 100 100 99 88 100 100 100 100 100 72 95 89 100 88 100 100 100 100 100 100 100
5 10 80 5 1 4 5 5 5 2 3 34 94 77 86 100 5 0 4 43 100 100 100 100 84 100 100 21 100 99 100 100 100 93 85 100 100 98 45 100 100 100 100 100 100
97 5 0 5 0 5 5 6 2 0 0 26 100 100 100 99 2 0 0 0 100 100 100 100 100 69 94 34 91 100 100 100 100 99 63 100 100 31 75 100 100 100 100 100 100
5 11 20 2 8 10 5 3 0 0 0 0 4 17 99 1 4 0 0 0 38 98 100 100 100 100 100 41 100 100 100 100 100 74 100 100 79 100 100 100 100 100 100 100 100
4 9 0 0 5 5 0 1 0 0 0 0 0 11 14 0 4 4 4 17 0 77 68 100 100 100 100 100 100 100 100 100 100 98 99 100 67 100 98 100 100 100 100 100 100
3 4 5 4 5 1 1 0 0 0 0 0 4 33 0 2 0 0 7 93 25 4 90 88 100 100 100 100 100 95 80 90 100 100 100 89 85 99 100 100 100 100 100 100 100
2 2 0 0 4 0 0 0 6 0 3 4 51 5 14 4 0 0 72 55 99 5 26 89 99 100 72 47 33 100 100 100 100 100 100 100 100 100 100 100 100 100 100 100 100
13 5 5 3 0 0 0 49 73 88 74 2 6 74 7 0 4 1 2 4 43 54 15 27 55 7 99 100 100 98 100 99 100 100 100 100 100 100 99 96 100 100 100 100 100
20 8 4 0 0 0 4 5 5 31 74 2 1 5 29 8 2 6 16 38 6 17 5 85 5 100 100 100 100 74 100 100 100 100 100 100 100 100 87 62 100 100 100 100 100
0 0 0 0 0 0 1 5 6 48 99 1 0 0 8 7 3 28 95 50 6 5 1 97 49 97 81 100 99 55 100 99 100 100 100 100 100 100 100 83 86 100 100 100 100
0 0 0 0 0 0 2 5 5 94 2 0 0 0 15 57 13 47 64 99 81 97 13 13 45 100 100 75 100 12 100 100 100 100 100 100 100 100 100 98 28 100 100 100 100
30 0 0 0 0 0 0 2 5 1 0 0 0 4 60 99 82 83 100 56 93 76 100 64 4 88 98 91 100 100 100 100 100 100 100 100 100 100 100 100 100 100 100 100 100
5 0 0 0 2 0 0 0 2 2 0 0 1 6 90 82 50 93 100 100 80 95 98 100 7 6 100 100 100 100 100 100 100 100 100 100 100 100 100 100 100 100 100 100 100
1 0 0 3 1 0 0 5 0 0 5 5 6 12 72 35 98 98 100 100 100 100 100 100 78 5 24 52 93 100 100 100 100 100 98 100 78 100 100 100 100 100 100 100 100
7 0 0 0 0 0 5 5 6 84 94 88 9 30 99 100 100 100 100 100 100 100 100 100 37 1 2 98 100 100 100 100 100 100 100 99 100 100 100 100 100 100 100 100 100
0 0 0 0 0 3 5 11 5 39 100 85 98 58 99 44 100 100 100 100 100 100 100 100 100 7 15 100 100 100 100 100 100 100 100 65 75 100 100 100 100 100 100 100 100
4 2 0 0 0 5 8 24 5 4 97 91 74 89 71 96 100 100 100 100 100 100 100 100 100 87 5 84 100 100 100 100 100 100 100 100 40 100 100 100 100 100 100 100 100
2 5 0 0 5 94 12 5 5 5 28 84 90 57 100 74 100 100 100 100 100 100 100 100 92 100 100 54 100 100 100 100 100 100 100 100 25 100 100 100 100 100 100 100 100
21 5 0 0 5 55 5 5 5 5 5 25 42 98 61 98 96 95 100 100 100 100 100 100 99 100 100 100 100 100 100 100 100 100 100 100 96 39 100 100 100 100 100 100 100
8 12 5 5 92 87 100 5 5 0 5 6 48 47 48 100 33 90 99 100 100 100 100 100 100 100 94 37 58 100 100 100 100 100 100 100 92 6 40 100 100 100 100 100 100
13 30 57 81 13 95 100 96 5 5 2 5 16 23 100 100 98 91 95 100 100 100 100 100 100 100 100 98 77 100 100 100 100 100 100 100 100 100 50 94 100 100 100 100 100
5 10 65 98 34 40 60 5 54 3 52 5 25 5 96 95 100 100 94 89 100 100 100 100 100 100 100 96 88 100 100 100 100 100 100 100 100 100 100 99 100 100 100 100 100
27 21 70 25 99 58 38 14 45 6 3 4 4 14 90 52 100 100 93 100 100 100 100 100 100 100 92 76 77 100 100 100 100 100 38 54 100 100 99 100 100 100 100 100 100

GFSSW_prec_cloud_225.txt.gz
Cloud_Cover
99 40 77 94 52 8 86 49 10 10 94 100 51 5 29 8 46 0 11 0 2 6 19 47 5 37 100 100 100 100 100 94 0 0 2 100 100 100 100 100 86 100 100 85 97
100 71 28 49 2 19 92 81 5 5 5 5 36 45 72 95 9 0 36 14 0 4 16 5 4 6 33 34 100 100 100 80 54 18 4 49 100 100 100 100 100 98 100 98 100
90 46 26 6 28 100 40 6 5 5 19 10 5 6 15 65 60 0 99 100 100 86 99 68 59 32 100 6 40 100 99 100 100 83 66 73 100 100 100 100 100 100 100 100 100
0 4 11 40 96 64 39 5 5 5 5 6 95 100 100 25 44 67 100 57 98 100 85 71 100 99 100 52 5 18 100 99 100 100 100 15 20 100 99 100 100 100 100 100 100
0 94 6 6 5 44 7 5 5 5 6 68 100 100 98 100 44 69 100 100 100 100 86 70 97 96 100 87 43 77 100 100 100 100 100 76 5 5 100 40 100 100 100 100 100
0 7 62 21 4 5 5 6 5 0 2 40 82 100 81 95 0 0 69 100 100 100 100 100 20 86 100 100 68 16 100 100 100 100 100 90 12 5 78 96 100 100 100 100 100
100 15 53 0 4 5 5 0 1 0 0 1 43 7 87 39 0 0 0 0 71 100 100 100 99 99 98 98 86 5 99 100 100 100 100 100 85 5 5 100 100 100 100 100 100
78 1 5 5 5 0 3 0 0 0 0 0 0 4 36 0 0 1 1 0 15 67 100 100 100 95 100 38 96 19 72 100 100 100 100 100 61 5 7 100 100 100 100 100 100
83 4 1 0 2 4 0 0 0 0 0 0 0 46 19 0 0 0 3 10 8 4 82 100 100 89 100 100 70 100 12 65 100 100 100 100 100 52 45 91 100 100 100 100 100
1 2 1 5 5 3 0 0 0 0 0 0 0 2 0 0 1 0 2 65 92 5 100 100 100 97 100 99 89 12 58 45 100 100 100 92 100 100 27 100 100 100 100 100 100
5 49 3 0 0 0 0 0 32 0 5 2 4 4 1 0 0 2 0 0 63 33 18 100 95 100 99 80 100 100 100 100 100 100 100 100 100 100 100 100 100 100 100 100 100
19 99 1 0 0 0 0 4 54 100 85 0 2 0 1 0 0 5 5 3 3 4 3 41 91 15 100 100 100 95 86 83 100 100 100 100 100 100 100 100 100 99 100 100 100
4 1 0 2 0 0 0 14 59 75 67 1 0 0 0 0 4 5 31 17 5 5 3 7 4 63 100 100 100 99 41 59 97 100 100 100 100 100 100 100 100 100 100 100 100
2 41 3 4 0 0 2 0 5 52 32 0 0 0 2 5 19 5 44 97 92 24 5 5 0 5 100 99 99 98 79 99 100 100 100 100 100 100 100 100 100 97 96 100 100
2 5 5 6 0 1 2 1 5 28 0 0 0 0 7 47 27 82 83 84 81 100 36 3 94 5 59 54 100 100 100 100 100 100 100 100 100 100 100 100 100 99 25 100 100
12 3 11 5 3 0 0 0 3 0 0 0 0 0 2 34 7 30 98 100 99 98 100 54 34 6 0 22 80 100 100 100 100 100 100 100 100 100 100 100 100 100 100 100 100
77 72 2 0 0 0 0 0 0 2 0 0 3 4 4 62 78 98 78 100 93 99 83 97 84 18 67 84 67 100 100 100 100 100 100 100 100 100 100 100 100 100 100 100 100
91 63 3 0 0 0 0 5 0 2 5 5 5 5 5 5 89 100 98 88 100 100 98 98 78 28 39 54 76 100 100 100 100 100 88 100 100 100 100 100 100 100 100 100 100
73 5 4 1 0 0 2 5 5 41 88 95 5 6 5 28 100 100 100 100 100 100 76 100 50 88 1 6 100 100 100 100 100 100 100 100 98 99 100 100 100 100 100 100 100
9 33 5 0 0 3 5 12 4 10 69 91 93 31 75 56 16 100 100 100 100 100 100 100 100 88 33 85 100 100 100 100 100 100 100 100 92 89 100 100 100 100 100 100 100
97 5 2 0 0 5 8 23 5 4 77 72 93 99 97 95 50 100 100 100 100 100 100 100 100 100 90 77 20 100 100 100 100 100 100 100 100 23 100 100 100 100 100 100 100
39 4 0 0 5 91 7 5 5 5 4 8 87 100 98 5 92 93 81 100 100 100 100 100 100 100 100 93 67 100 100 100 100 100 100 100 100 100 100 100 100 100 100 100 100
72 5 1 0 33 78 6 5 5 5 5 10 5 100 69 5 90 51 95 99 99 100 100 100 100 100 100 100 100 100 100 100 100 100 100 100 100 38 98 100 100 100 100 100 100
11 11 14 5 78 92 91 38 24 0 4 4 11 78 4 5 10 98 100 58 100 100 100 100 100 100 56 30 48 58 100 100 100 100 100 100 100 100 92 100 100 100 100 100 100
47 46 86 63 15 99 66 36 5 4 0 4 8 10 13 93 20 78 91 95 100 100 100 100 100 100 100 82 100 100 100 100 100 100 100 100 100 100 100 100 100 100 100 100 100
80 92 67 85 97 95 53 5 5 5 7 4 37 5 5 55 100 100 95 82 97 100 100 100 100 100 100 100 100 100 100 100 100 100 100 100 100 100 100 100 100 100 100 100 100
58 32 93 21 90 55 45 51 65 8 4 4 5 6 5 5 6 100 82 100 100 100 100 100 100 100 100 100 100 100 100 100 100 100 100 100 100 100 100 100 100 100 100 100 100

GFSSW_prec_cloud_231.txt.gz
Cloud_Cover
0 0 0 0 78 0 47 1 3 5 5 5 9 23 12 7 3 6 25 45 3 0 3 35 99 100 100 50 43 100 89 100 50 78 100 100 29 5 99 100 100 100 100 100 100
0 0 0 60 8 1 1 1 6 6 5 64 82 57 93 100 46 15 0 26 99 14 0 32 3 59 76 53 94 81 97 58 95 100 100 100 75 6 25 100 100 100 100 100 100
0 5 18 4 50 3 1 1 0 38 90 86 83 27 8 60 80 3 2 100 100 58 69 10 5 68 91 6 50 60 100 95 100 100 100 100 100 16 4 23 100 100 100 100 100
1 5 1 1 3 2 6 12 2 7 10 17 15 5 5 100 43 12 4 95 100 98 100 100 83 71 92 100 12 44 12 100 100 100 100 100 100 26 4 2 100 100 100 100 100
4 6 89 10 0 2 5 3 0 3 25 5 5 5 51 90 22 5 100 100 84 100 100 100 100 100 99 4 6 92 80 100 100 100 40 100 100 100 37 5 88 100 100 100 100
2 0 0 0 5 92 39 3 0 0 2 2 9 4 98 95 26 8 6 39 72 100 100 99 88 85 74 5 29 5 98 100 100 100 100 100 89 100 96 4 10 100 100 100 100
0 0 0 0 86 3 2 0 0 0 0 0 1 54 100 43 6 5 5 5 12 50 95 87 100 95 96 82 24 38 92 100 100 100 100 100 100 100 100 38 5 74 100 100 100
0 0 0 0 59 0 0 0 0 0 0 0 0 5 26 3 0 2 5 32 9 6 63 100 88 100 94 26 92 19 100 93 100 100 100 100 100 100 100 100 16 100 100 100 100
0 0 1 4 0 0 0 0 0 0 0 0 3 17 85 0 5 0 5 16 79 83 8 82 100 95 100 8 58 100 74 5 100 99 100 100 100 100 100 100 100 59 100 100 100
0 3 9 0 0 0 0 0 0 0 0 0 0 20 58 33 0 0 1 5 6 91 79 100 100 100 94 92 52 17 44 5 75 79 100 70 100 100 100 100 100 93 62 100 100
20 80 0 0 0 0 0 0 0 0 0 0 0 0 0 0 0 5 5 8 80 65 82 98 75 86 100 96 53 80 100 88 29 84 100 100 100 100 100 100 100 100 74 79 100
0 0 0 0 0 0 4 2 86 78 73 0 0 0 0 0 8 96 5 70 100 100 100 83 86 100 100 100 100 64 33 100 100 69 100 100 100 100 100 100 100 100 100 91 100
0 0 0 0 0 4 3 5 8 91 100 0 0 0 0 0 5 46 6 100 99 99 100 100 65 41 98 100 100 99 22 50 98 100 68 100 100 100 100 100 100 100 100 91 100
0 0 0 0 0 1 4 4 5 51 84 0 0 33 4 4 96 44 17 94 97 93 100 80 79 78 100 94 100 100 56 46 98 100 31 100 100 100 100 100 100 100 100 100 100
0 0 0 0 0 4 3 0 1 71 19 0 0 0 5 75 46 98 85 90 80 93 89 47 100 5 62 93 94 70 98 31 100 98 100 100 100 100 100 100 100 91 48 100 100
0 0 0 2 4 4 0 0 9 74 4 0 1 5 5 89 100 100 100 47 69 65 59 62 83 10 49 16 99 99 91 5 100 100 100 96 100 100 100 100 98 94 68 100 100
0 0 0 0 0 0 0 1 53 3 0 2 3 5 53 82 84 100 94 97 97 100 99 80 74 14 28 87 24 64 100 98 100 100 100 85 88 100 100 100 100 94 92 100 100
0 0 0 0 0 0 2 11 3 6 5 5 5 15 99 91 18 81 100 99 100 100 100 100 96 22 5 27 7 92 96 100 100 78 47 63 100 88 100 100 100 69 99 100 100
0 0 0 0 0 0 4 9 5 5 5 66 5 25 99 100 69 92 100 100 100 96 100 100 100 38 5 5 42 100 91 100 100 100 100 59 6 20 99 100 100 100 100 23 100
0 0 0 0 0 2 49 24 14 5 5 85 100 66 100 100 42 99 90 100 100 100 100 100 100 100 50 55 99 100 100 100 100 100 100 50 30 82 34 100 100 100 62 5 100
0 0 0 0 0 2 16 37 5 0 4 57 98 99 100 99 23 100 80 89 100 95 100 100 100 100 85 11 86 100 99 87 87 86 82 38 6 90 69 100 100 100 100 11 91
0 2 0 0 10 33 14 5 5 2 3 6 85 95 98 6 5 100 100 99 98 100 100 100 100 100 100 86 29 100 98 71 7 100 100 100 100 40 99 100 100 100 100 45 36
0 0 0 0 1 5 4 7 25 0 0 5 5 46 20 1 34 73 75 29 66 100 100 100 99 100 100 100 18 100 35 5 3 100 100 100 100 10 100 100 100 100 100 100 100
3 22 4 20 64 22 8 5 20 0 0 1 0 39 5 1 1 2 29 15 5 93 100 100 100 100 100 100 65 86 20 48 5 100 100 98 80 99 89 100 100 20 100 100 100
2 5 1 6 20 5 48 33 5 5 0 0 0 4 5 5 5 40 0 78 5 96 100 100 100 100 97 100 93 7 95 84 100 100 100 96 100 100 100 100 100 99 100 100 100
4 2 5 11 5 19 42 74 5 5 5 2 5 5 5 5 5 5 3 16 85 39 83 77 100 100 100 100 100 100 100 100 96 100 100 100 100 100 100 100 100 100 100 100 100
5 6 18 12 40 65 48 70 15 5 4 5 5 5 5 0 0 0 4 79 94 100 100 98 100 100 100 100 100 100 100 100 100 100 100 100 100 100 100 100 100 100 100 97 73

GFSSW_prec_cloud_234.txt.gz
Cloud_Cover
0 0 0 45 12 52 92 40 0 2 79 96 99 90 9 5 18 1 0 8 33 80 0 0 23 98 100 74 26 12 100 89 81 5 13 100 100 14 87 44 100 100 100 100 100
3 1 1 9 0 2 1 0 23 89 46 33 57 5 80 11 3 2 0 84 57 4 30 26 0 81 100 59 6 83 64 43 54 73 100 100 88 70 38 44 75 100 100 100 100
0 0 75 95 31 92 7 0 0 3 45 59 100 6 5 2 3 100 3 4 85 100 90 56 59 92 12 86 4 5 15 7 73 94 100 100 34 100 73 95 1 100 100 100 100
8 49 0 0 0 0 0 1 0 1 9 45 5 8 7 32 10 39 8 95 100 100 90 16 99 69 26 79 54 30 5 11 100 100 100 100 100 100 97 39 68 100 100 100 100
0 0 0 2 1 0 0 0 0 0 2 3 4 14 69 96 5 9 98 5 66 100 100 94 100 71 100 100 24 86 83 56 100 100 100 100 98 100 90 100 70 11 100 100 100
4 3 0 3 2 0 0 0 0 0 0 0 1 3 56 89 86 76 7 27 2 24 100 100 100 79 96 100 87 10 100 100 100 100 100 100 99 100 94 100 81 5 68 100 100
0 2 0 0 0 0 0 0 0 0 0 0 0 2 59 45 3 0 14 25 3 4 53 100 100 72 96 35 98 56 95 99 44 86 100 100 100 100 100 100 99 5 1 100 100
0 1 6 0 0 0 0 0 0 0 0 0 0 0 12 1 0 4 2 8 98 25 29 98 100 75 15 68 6 14 90 61 80 78 100 98 85 100 100 100 100 58 5 5 99
0 1 3 17 0 0 0 0 0 0 0 0 6 5 93 5 14 0 0 4 8 48 98 92 90 87 51 25 31 99 20 26 54 69 100 78 85 100 100 100 98 98 49 10 78
0 0 0 0 0 0 0 0 0 0 0 0 2 2 3 0 0 0 5 25 5 52 100 99 35 92 90 100 37 53 39 1 2 97 100 77 61 100 100 100 100 100 80 11 30
0 0 0 0 0 0 0 0 0 0 0 1 0 0 0 0 0 60 10 3 37 11 47 100 100 100 91 55 75 7 100 8 2 66 69 90 100 100 100 100 100 100 100 86 7
0 0 0 0 0 0 6 3 15 21 68 0 0 0 0 0 1 9 5 26 49 81 90 99 57 95 100 98 97 81 89 45 100 99 79 100 100 100 100 100 100 100 100 100 100
0 0 0 0 0 0 16 4 8 99 64 0 0 0 0 0 7 42 81 12 86 49 90 75 1 100 100 100 100 100 99 62 65 91 100 100 100 100 95 100 100 100 98 100 100
0 0 0 0 0 1 2 0 5 14 60 2 0 1 2 3 68 61 87 80 71 36 79 95 86 60 100 100 89 90 5 90 100 100 82 90 100 100 90 100 100 78 100 100 100
0 0 0 0 0 4 0 0 5 85 38 0 1 0 0 27 41 9 56 48 27 90 98 8 53 38 5 50 100 96 49 98 100 100 94 83 100 100 100 100 100 71 100 96 100
0 0 0 0 0 1 0 0 10 94 19 2 0 0 0 22 77 84 86 78 88 98 7 5 3 5 0 68 100 86 100 95 100 100 100 79 78 100 100 100 100 100 100 97 100
0 0 0 0 0 0 0 1 56 5 0 2 1 0 73 4 11 5 93 100 94 93 100 92 34 5 5 26 82 96 100 100 100 100 52 100 100 100 100 100 100 100 100 93 100
0 0 0 0 0 0 0 18 4 4 5 0 0 5 95 65 0 5 82 100 96 94 95 100 96 99 5 4 1 7 79 100 26 16 0 83 100 11 90 100 100 100 100 100 100
0 0 0 0 0 0 7 5 5 5 4 8 1 5 2 12 1 0 68 97 100 98 100 99 100 100 97 8 78 26 47 57 96 5 74 35 86 100 51 100 100 100 100 26 5
0 0 0 0 0 0 27 13 5 2 0 5 42 5 24 22 1 3 5 100 100 100 100 95 100 100 100 83 27 92 5 66 100 75 56 91 60 5 6 100 100 100 100 22 5
0 0 0 0 0 2 5 5 4 4 1 2 5 5 11 11 0 5 5 54 100 96 100 100 100 100 100 77 3 100 65 77 90 100 100 14 99 5 90 59 100 100 100 100 29
5 26 0 0 4 72 3 0 0 0 0 5 3 7 5 3 0 5 55 99 7 51 100 100 100 100 100 100 42 19 5 64 100 100 100 100 67 8 5 8 100 100 100 97 98
2 4 0 0 5 5 0 4 0 0 0 2 1 0 43 0 2 0 0 2 5 74 78 100 100 100 100 93 80 64 100 89 100 100 100 100 92 86 76 4 93 100 100 100 100
19 39 40 48 6 5 5 4 5 5 0 0 0 64 9 0 0 1 0 4 3 5 97 99 95 100 100 100 100 65 100 90 100 100 100 100 100 100 76 23 3 100 100 100 100
1 5 2 10 5 5 5 11 48 5 0 3 3 5 65 48 3 2 0 0 3 99 52 80 92 91 100 100 66 98 100 100 99 71 100 100 100 100 100 100 97 67 100 100 100
5 2 5 11 5 24 56 5 5 5 5 5 5 5 5 5 17 5 0 0 5 5 75 96 93 94 100 34 36 100 100 100 100 100 100 68 100 100 99 100 91 100 100 100 100
2 5 42 30 9 5 12 22 45 5 0 29 29 5 5 4 3 0 0 2 35 100 100 94 100 100 99 100 100 100 100 100 89 100 90 52 100 100 100 97 100 100 100 94 94

GFSSW_prec_cloud_240.txt.gz
Cloud_Cover
0 0 0 0 0 0 0 1 0 0 0 3 5 5 6 15 4 0 3 55 4 45 100 100 100 100 100 76 9 5 100 79 24 85 5 95 100 100 40 10 96 100 100 94 98
0 0 0 0 0 0 0 0 0 2 1 3 5 33 3 51 1 3 99 69 51 86 40 52 2 47 100 100 97 97 85 31 5 2 12 100 100 100 74 99 27 39 100 67 100
0 0 0 0 0 0 0 0 0 1 1 56 27 6 4 8 2 64 100 16 96 100 100 100 54 12 100 100 20 23 75 30 14 45 88 100 100 100 100 53 60 31 100 87 100
0 0 0 0 0 0 0 0 0 0 2 0 5 5 0 5 20 5 5 5 4 0 2 90 100 100 16 72 15 19 20 7 5 88 100 100 100 100 100 83 14 5 20 94 63
0 0 0 0 0 0 0 0 0 0 0 0 2 0 11 5 3 1 0 2 0 5 5 8 100 100 76 90 82 91 14 78 30 54 100 100 100 100 100 100 54 5 38 30 97
5 5 4 0 0 0 0 0 0 0 0 0 0 0 6 63 0 0 5 0 0 16 27 5 91 83 95 100 81 52 53 100 91 98 100 100 100 100 100 100 24 5 47 6 92
5 5 5 4 0 0 0 0 0 0 0 0 0 0 0 1 5 5 1 0 0 8 6 99 15 100 63 100 89 100 100 55 5 98 100 100 96 100 100 82 100 56 96 69 90
2 5 5 5 0 0 0 0 0 0 0 0 0 1 0 0 0 4 5 5 3 5 28 52 90 22 97 5 100 100 100 69 34 100 100 100 100 100 100 100 100 71 100 99 24
0 5 4 0 1 0 0 0 0 0 0 0 0 0 0 0 0 5 5 3 5 5 84 83 92 32 100 86 36 89 70 5 5 100 100 100 100 100 100 100 100 100 95 99 52
4 0 0 0 0 0 0 0 0 0 0 0 0 0 0 0 1 5 28 5 5 5 5 83 70 57 100 92 48 98 86 24 5 100 100 67 100 100 98 100 100 100 100 100 100
0 0 0 0 0 0 0 0 1 0 0 0 0 0 0 0 4 30 5 5 5 5 75 80 89 100 75 47 91 4 8 87 62 100 100 78 100 100 100 100 100 100 100 100 100
3 0 0 0 0 0 0 0 1 6 31 0 0 0 0 0 2 5 5 5 5 5 5 56 90 66 100 27 15 8 5 85 100 71 100 98 100 100 100 100 100 100 100 100 100
0 0 0 0 0 0 0 0 1 4 33 1 0 0 5 0 3 5 4 5 5 5 5 32 60 8 92 99 82 99 96 99 100 44 89 93 100 75 38 100 100 100 100 100 99
0 0 0 0 0 0 0 0 0 37 5 0 0 3 17 0 4 5 37 5 5 5 5 5 11 5 5 100 100 65 48 92 100 92 98 100 100 100 73 100 100 100 100 100 100
0 0 0 0 0 0 0 0 4 5 0 1 0 3 40 3 4 3 8 5 5 5 12 5 5 0 5 80 84 72 100 100 100 100 100 100 100 94 100 85 100 100 100 100 83
2 0 0 0 0 0 0 0 5 0 4 0 0 3 0 0 0 0 5 4 5 5 5 5 6 5 4 5 5 70 100 100 100 100 95 96 100 100 98 100 100 100 100 100 93
5 0 0 0 0 0 0 0 5 6 0 0 0 0 0 0 0 11 31 34 59 32 52 5 28 82 10 5 14 98 100 100 93 74 32 77 100 100 58 100 100 100 100 100 100
5 0 0 0 0 0 0 4 14 1 0 0 0 0 0 0 0 69 23 100 5 5 76 89 56 65 92 6 31 99 100 91 48 55 28 12 90 100 23 100 100 100 100 100 99
0 0 0 0 0 0 2 15 6 5 0 0 0 0 0 0 0 0 95 52 24 13 3 92 77 95 86 13 28 84 95 100 51 40 20 5 67 100 72 100 100 100 100 100 100
5 0 0 0 0 0 5 30 54 3 0 0 5 4 41 3 0 3 5 90 30 1 5 58 93 57 93 67 6 61 96 100 100 67 5 72 100 99 100 100 100 100 100 100 100
0 0 0 0 0 2 5 3 0 0 0 0 3 5 4 5 1 1 2 4 2 0 4 95 98 94 96 75 38 30 50 100 91 96 83 100 79 100 100 100 70 100 100 100 100
3 4 0 0 4 81 5 0 0 0 0 0 0 5 5 4 3 4 5 0 0 0 5 70 100 100 100 84 76 88 75 64 100 80 100 100 100 100 100 100 100 98 100 100 100
14 5 2 0 5 56 3 0 0 0 0 0 0 5 5 5 0 0 0 0 0 0 90 63 100 94 100 100 100 92 100 87 100 100 100 100 100 100 100 100 100 100 100 100 100
5 2 5 5 31 5 7 5 0 0 0 0 5 5 0 0 0 1 0 0 0 3 97 15 94 100 100 100 90 78 88 98 99 98 100 100 100 100 100 100 100 100 100 99 100
6 10 5 5 5 5 8 5 3 4 0 0 1 4 22 13 5 5 1 1 0 21 31 55 96 100 100 100 100 77 15 86 91 100 100 100 100 100 100 100 100 100 100 100 100
5 5 5 9 1 5 5 5 3 2 4 0 42 51 5 33 5 9 53 71 8 58 100 93 89 94 100 100 100 96 99 100 100 100 100 100 100 100 100 100 100 100 100 100 100
4 5 23 12 5 5 5 4 3 2 0 5 5 5 4 0 5 5 40 38 96 83 92 97 95 100 100 100 100 100 100 100 99 100 100 100 100 100 100 78 100 52 100 100 100